Location: Ettringen
(48.1054°N, 10.6545°E)
Time: 22:03:13
(UTC+00:00)

RESURS DK-1 - Pass Details

Date: 18 November 2025
Orbit: 524 x 535 km, 69.9° (Epoch: 04 December)

Event Time Altitude Azimuth Distance (km) Brightness Sun altitude
Rises 16:52:39 0° 328° (NNW) 2,699 6.1 -12.7°
Reaches altitude 10° 16:54:51 10° 326° (NW) 1,803 5.2 -13.0°
Maximum altitude 16:58:50 66° 245° (WSW) 588 2.7 -13.7°
Drops below altitude 10° 17:02:47 10° 162° (SSE) 1,786 4.9 -14.3°
Sets 17:04:57 0° 160° (SSE) 2,671 5.7 -14.7°
